Location: Gleizolles
(44.4833°N, 6.7667°E)
Time: 21:51:46
(UTC+00:00)

Tiros 1 despin weight - Pass Details

Date: 25 June 2024
Orbit: 576 x 620 km, 48.2° (Epoch: 19 July)

Event Time Altitude Azimuth Distance (km) Brightness Sun altitude
Rises 11:46:02 0° 254° (WSW) 2,882 ? 68.8°
Reaches altitude 10° 11:48:21 10° 256° (WSW) 1,982 ? 68.7°
Maximum altitude 11:52:54 75° 341° (NNW) 646 ? 68.6°
Drops below altitude 10° 11:57:30 10° 68° (ENE) 1,989 ? 68.4°
Sets 11:59:49 0° 70° (ENE) 2,894 ? 68.3°
